STARLINK-30533, 58037

Orbit data source: Space-Track

STARLINK-30533, 58037 is a payload satellite owned by SpaceX/Seattle (US) in LEO that was launched on Mon, 09 Oct 2023 UTC via an FALCON 9 launch vehicle from the Air Force Western Test Range (AFWTR). Payload-class satellites include a variety of spacecraft equipped with specific instruments for various scientific and technological missions. These include communications satellites like Starlink; space stations such as the ISS; scientific satellites like the Hubble; Earth observation satellites from companies like Planet Labs, Umbra, and HawkEye 360; GPS; miniature CubeSats for education and research; and military/defense satellites.

Loading next visibility...
Identifier
58037, 2023-156K
Orbit
LEO
Country
Flag of USUS
Related business
Manufacturer
SpaceX/Seattle
Mission
Operational Commercial Communications
Bus & Motor
STARLINK V2M, Unknown motor
Mass
730 kg wet, ~700 kg dry
Launch date (UTC)
2023-10-09 (2 years ago)
Launch vehicle
FALCON 9
Launch site
Air Force Western Test Range (AFWTR)
Object type
Payload
Rocket body
Debris
Shape & HBR
Box + 2 Pan, 17.7 m
Radar Cross Section
33.884 m², Large (>1 m²)

Expand to show TLE details & history
Last TLE update: 17 hours ago

TLE from 17 hours ago
0 STARLINK-30533
1 58037U 23156K   25348.91984965  .00018875  00000-0  64777-3 0  9996
2 58037  53.1603 201.9513 0001073  92.9181 267.1942 15.30200708122052
Epoch: 2025-12-14T22:04Z
TLE epoch observation values (Epoch: 2025-12-14T22:04:35.009Z)
Latitude
-0.00008°
Longitude
146.97951°
Altitude
476.149 km
Speed
7.629 km/s
True Right ascension
13h 27m 48s
True Declination
0° 00' 00"
Sunlit
Object was in daylight at epoch
Visualization orbit readout
Latitude
Unknown
Longitude
Unknown
Altitude
Unknown
Speed
Unknown
Apparent Right ascension
Unknown
Apparent Declination
Unknown
Sunlit
N/A
Visualization observer readout
Local Sidereal Time
13:25:43
Azimuth
Unknown
Elevation
Unknown
Doppler factor
Unknown
Orbital elements
Apogee altitude
476.205 km
Perigee altitude
474.734 km
Semi-major axis
6,853.606 km
Eccentricity
0.00011
Inclination
53.1603°
RAAN
201.9513°
Arg. of periapsis
92.9181°
True anomaly
267.18192°
Mean anomaly
267.1942°
Eccentric anomaly
267.18806°
Mean motion
3.82529 °/min
Orbital period
94.11 mins
BSTAR
0.00064777
Loading maneuver chart data...
Computing Atmospheric mass density...
Loading historical data...
Loading historical data...
Loading historical data...
Loading historical data...
Loading historical data...
Loading historical data...
Loading historical data...

Documentation

Showing up to 5 results
|